#timestamp,LO_Frequency,Hit,StdDev 
1509606015.5,286046999.5,N
1509606035.4,286047004.3,N
1509606055.2,286047003.8,N
1509606075.0,286047005.7,N
1509606075.9,286047005.7,N
1509606095.8,286047005.4,N
1509606115.6,286047004.5,N
1509606135.4,286047004.8,N
1509606155.3,286047003.7,N
1509606175.1,286047000.3,N
1509606195.8,286046999.8,N
1509606215.7,286046998.8,N
1509606235.5,286046998.8,N
1509606255.3,286046998.4,N
1509606275.2,286046998.8,N
1509606295.0,286046999.3,N
1509606295.9,286046999.3,N
1509606315.8,286046999.9,N
1509606335.6,286047001.5,N
1509606355.4,286047003.0,N
1509606375.3,286047003.1,N
1509606395.1,286047003.3,N
1509606396.0,286047003.3,N
1509606415.8,286047004.5,N
1509606435.7,286047007.2,N
1509606455.5,286047002.9,N
1509606475.3,286047001.7,N
1509606495.2,286046998.3,N
1509606515.9,286046999.3,N
1509606535.7,286046994.9,N
1509606555.6,286046991.3,Y
1509606575.4,286046991.5,P
1509606595.2,286046992.0,N
1509606615.1,286046993.1,N
1509606616.0,286046993.1,N
1509606635.8,286046992.5,N
1509606655.6,286046992.5,N
1509606675.5,286046988.4,Y
1509606695.3,286046993.0,P
1509606715.2,286046993.1,P
1509606735.9,286046996.3,P
1509606755.7,286046997.2,N
1509606775.6,286046994.4,Y
1509606795.4,286046999.6,P
1509606815.2,286046993.5,N
1509606835.1,286046993.4,N
1509606836.0,286046993.4,N
1509606855.8,286046990.2,Y
1509606875.6,286046994.5,P
1509606895.5,286046993.0,P
1509606915.3,286046991.9,P
1509606935.2,286046996.0,Y
1509606955.9,286047000.6,P
1509606975.7,286046997.2,N
1509606995.6,286046997.0,N
1509607015.4,286046998.5,N
1509607035.2,286046997.7,N
1509607055.1,286046996.3,N
1509607056.0,286046996.3,N
1509607075.8,286046993.9,Y
1509607095.7,286046997.6,P
1509607115.5,286046996.3,P
1509607135.3,286046992.3,P
1509607155.2,286046991.3,Y
1509607175.0,286046997.7,P
1509607175.9,286046997.7,N
1509607195.7,286046997.4,N
1509607215.6,286046990.4,Y
1509607235.4,286046994.6,P
1509607255.3,286046989.2,P
1509607275.1,286046987.1,P
1509607276.0,286046987.1,Y
1509607295.8,286046996.9,P
1509607315.7,286046995.0,N
1509607335.5,286046995.5,N
1509607355.3,286046997.8,N
1509607375.2,286046997.9,N
1509607395.9,286046999.5,N
1509607415.7,286047002.6,N
1509607435.6,286047003.9,N
1509607455.4,286047006.8,N
1509607475.2,286047006.2,N
1509607495.1,286047007.0,N
1509607496.0,286047007.0,N
1509607515.8,286047008.5,N
1509607535.6,286047009.5,N
1509607555.5,286047014.7,N
1509607575.3,286047017.4,N
1509607595.1,286047022.0,Y
1509607615.9,286047021.0,P
1509607635.7,286047023.4,N
1509607655.5,286047024.5,N
1509607675.4,286047024.5,N
1509607695.2,286047022.8,N
1509607715.1,286047024.8,Y
1509607716.0,286047024.8,P
1509607735.8,286047003.9,N
1509607755.6,286047003.9,N
1509607775.5,286046999.7,N
1509607795.3,286046996.9,N
1509607815.1,286046998.0,N
1509607835.9,286046997.9,N
1509607855.7,286046997.4,N
1509607875.5,286046997.3,N
1509607895.4,286046997.3,N
1509607915.2,286046997.7,N
1509607935.0,286046996.7,N
1509607935.9,286046996.7,N
1509607955.8,286046996.1,N
1509607975.6,286046997.4,N
1509607995.4,286046995.3,N
1509608015.3,286046992.5,N
1509608035.1,286046992.3,N
1509608055.8,286046992.2,N
1509608075.7,286046994.5,N
1509608095.5,286046991.7,N
1509608115.3,286046991.3,N
1509608135.2,286046992.7,N
1509608155.0,286046994.2,N
1509608155.9,286046994.2,N
1509608175.7,286046991.6,N
1509608195.6,286046989.6,N
1509608215.4,286046990.9,N
1509608235.3,286046989.6,N
1509608255.1,286046986.0,N
1509608256.0,286046986.0,N
1509608275.8,286046982.1,Y
1509608295.7,286046990.4,P
1509608315.5,286046990.2,P
1509608335.3,286046994.8,N
1509608355.2,286046992.8,Y
1509608375.0,286046997.7,P
1509608375.9,286046997.7,N
1509608395.8,286046999.3,N
1509608415.6,286047001.2,N
1509608435.4,286047000.6,N
1509608455.3,286046999.4,N
1509608475.1,286047001.8,N
1509608476.0,286047001.8,N
1509608495.8,286047003.7,N
1509608515.7,286047002.3,N
1509608535.5,286047000.4,N
1509608555.3,286046999.8,N
1509608575.2,286046998.7,N
1509608595.9,286046998.7,N
1509608615.7,286047000.7,N
1509608635.6,286047002.4,N
1509608655.4,286047000.5,N
1509608675.2,286047000.5,N
1509608695.1,286047001.7,N
1509608696.0,286047001.7,N
1509608715.8,286047001.9,N
1509608735.6,286047003.8,N
1509608755.5,286047002.5,N
1509608775.3,286047002.3,N
1509608795.1,286047000.6,N
1509608815.9,286047002.1,N
1509608835.7,286047002.0,N
1509608855.5,286046998.4,N
1509608875.4,286046999.0,N
1509608895.2,286047001.0,N
1509608915.0,286046999.1,N
1509608915.9,286046999.1,N
1509608935.8,286046998.7,N
1509608955.6,286046997.4,N
1509608975.4,286046998.2,N
1509608995.3,286046998.1,N
1509609015.1,286046995.3,N
1509609035.8,286046997.1,N
1509609055.7,286047002.7,N
1509609075.5,286047000.5,N
1509609095.3,286047000.3,N
1509609115.2,286046998.4,N
1509609135.0,286046998.6,N
1509609135.9,286046998.6,N
1509609155.8,286046999.4,N
1509609175.6,286046998.0,N
1509609195.4,286046997.2,N
1509609215.3,286047001.1,N
1509609235.1,286047002.3,N
1509609236.0,286047002.3,N
1509609255.8,286046998.2,N
1509609275.7,286047000.5,N
1509609295.5,286047001.6,N
1509609315.3,286047000.7,N
1509609335.2,286047000.0,N
1509609355.0,286047003.7,N
1509609355.9,286047003.7,N
1509609375.7,286047001.1,N
1509609395.6,286047000.6,N
1509609415.4,286047000.9,N
1509609435.2,286046999.1,N
1509609455.1,286046998.1,N
1509609456.0,286046998.1,N
1509609475.8,286046997.8,N
1509609495.7,286046999.5,N
1509609515.5,286047000.2,N
1509609535.3,286047004.3,N
1509609555.2,286046998.4,N
1509609575.9,286046996.9,N
1509609595.7,286046999.8,N
